User: anonymous   Login
Location: Columbia
(38.9520°N, 92.3340°W)
Time: 02:46:07
(UTC-05:00)
Language:

Iridium 15 - Orbit

View from above orbital plane
View from above orbital plane
View from above satellite
View from above satellite

Ground track
Ground track

The orbit data is extracted from the following two-line orbital elements,

1 24869U 97034A   14297.46135257  .00000584  00000-0  20153-3 0  1250
2 24869 086.3971 065.9090 0002138 111.2907 315.4191 14.34216004905350
Epoch (UTC): 24 October 2014 11:04:20
Eccentricity: 0.0002138
inclination: 86.3971°
perigee height: 776 km
apogee height: 779 km
right ascension of ascending node: 65.9090°
argument of perigee: 111.2907°
revolutions per day: 14.34216004
mean anomaly at epoch: 315.4191°
orbit number at epoch: 90535

The dashed part of the orbit path shows where the satellite is in the earth's shadow,  

DLR